Weather History for EGPN - July, 2013

Change the Weather History Date:

Wednesday, July 10, 2013

  Actual Average Record
Temperature  
Mean Temperature 58 °F -  
Max Temperature 60 °F 65 °F 78 °F (2005)
Min Temperature 55 °F 55 °F 50 °F (2007)
Degree Days  
Heating Degree Days 8    
Growing Degree Days 8 (Base 50)    
Moisture  
Dew Point 53 °F    
Average Humidity 84    
Maximum Humidity 94    
Minimum Humidity 77    
Precipitation  
Precipitation 0.00 in - - ()
Sea Level Pressure  
Sea Level Pressure 30.39 in    
Wind  
Wind Speed 6 mph ()    
Max Wind Speed 10 mph    
Max Gust Speed -    
Visibility 5.7 miles    
Events      
Averages and records for this station are not official NWS values.
T = Trace of Precipitation, MM = Missing Value Source: Averaged Metar Reports

Daily Weather History Graph

Daily Weather History Graph

Search for Another Location

Airport or City:

Trip Planner

Search our weather history database for the weather conditions in past years. The results will help you decide how hot, cold, wet, or windy it might be!

Date:

Astronomy

Jul. 10, 2013 Rise Set
Actual Time 4:36 AM BST 9:57 PM BST
Civil Twilight 3:36 AM BST 10:56 PM BST
Nautical Twilight 1:49 AM BST 12:45 AM BST
Astronomical Twilight Sun does not rise Sun does not rise
Moon 7:21 AM BST (7/10) 10:15 PM BST (7/10)
Length of Visible Light 19h 19m
Length of Day
17h 20m
Waxing Crescent, 4% of the Moon is Illuminated
Jul 10
Waxing Crescent
Jul 16
First Quarter
Jul 22
Full
Jul 29
Last Quarter
Aug 6
New

Hourly Weather History & Observations

Time (BST) Temp. Dew Point Humidity Pressure Visibility Wind Dir Wind Speed Gust Speed Precip Events Conditions
7:20 AM 55.4 °F 53.6 °F 94% 30.42 in 3.7 mi ESE 6.9 mph - N/A   Drizzle
7:50 AM 55.4 °F 53.6 °F 94% 30.42 in 3.7 mi ESE 6.9 mph - N/A   Drizzle
8:20 AM 55.4 °F 53.6 °F 94% 30.42 in 3.7 mi East 6.9 mph - N/A   Light Drizzle
8:50 AM 55.4 °F 53.6 °F 94% 30.42 in 3.7 mi ESE 5.8 mph - N/A   Light Drizzle
9:20 AM 55.4 °F 53.6 °F 94% 30.42 in 5.0 mi ESE 5.8 mph - N/A   Light Drizzle
9:50 AM 55.4 °F 53.6 °F 94% 30.42 in 5.0 mi East 5.8 mph - N/A   Light Drizzle
10:20 AM 55.4 °F 53.6 °F 94% 30.42 in 5.0 mi East 5.8 mph - N/A   Light Drizzle
10:50 AM 57.2 °F 53.6 °F 88% 30.42 in 5.0 mi ENE 5.8 mph - N/A   Light Drizzle
11:20 AM 57.2 °F 53.6 °F 88% 30.42 in 5.6 mi ENE 5.8 mph - N/A   Mostly Cloudy
11:50 AM 57.2 °F 53.6 °F 88% 30.39 in 6.2 mi East 5.8 mph - N/A   Mostly Cloudy
12:20 PM 59.0 °F 53.6 °F 82% 30.39 in 6.2 mi East 5.8 mph - N/A   Mostly Cloudy
12:50 PM 60.8 °F 55.4 °F 82% 30.39 in 6.2 mi East 4.6 mph - N/A   Mostly Cloudy
1:50 PM 60.8 °F 55.4 °F 82% 30.39 in 6.2 mi East 9.2 mph - N/A   Mostly Cloudy
2:20 PM 60.8 °F 53.6 °F 77% 30.39 in 6.2 mi East 8.1 mph - N/A   Mostly Cloudy
2:50 PM 60.8 °F 53.6 °F 77% 30.39 in 6.2 mi East 9.2 mph - N/A   Mostly Cloudy
3:20 PM 59.0 °F 53.6 °F 82% 30.39 in 6.2 mi East 8.1 mph - N/A   Mostly Cloudy
3:50 PM 60.8 °F 53.6 °F 77% 30.39 in 6.2 mi East 8.1 mph - N/A   Mostly Cloudy
4:20 PM 60.8 °F 53.6 °F 77% 30.39 in 6.2 mi East 8.1 mph - N/A   Mostly Cloudy
4:50 PM 60.8 °F 53.6 °F 77% 30.36 in 6.2 mi East 6.9 mph - N/A   Scattered Clouds
5:20 PM 60.8 °F 53.6 °F 77% 30.36 in 6.2 mi East 6.9 mph - N/A   Partly Cloudy
5:50 PM 60.8 °F 53.6 °F 77% 30.36 in 6.2 mi East 8.1 mph - N/A   Partly Cloudy
6:20 PM 60.8 °F 53.6 °F 77% 30.36 in 6.2 mi East 8.1 mph - N/A   Partly Cloudy
6:50 PM 60.8 °F 53.6 °F 77% 30.36 in 6.2 mi East 10.4 mph - N/A   Partly Cloudy
7:20 PM 60.8 °F 53.6 °F 77% 30.36 in 6.2 mi East 9.2 mph - N/A   Partly Cloudy
7:50 PM 57.2 °F 51.8 °F 82% 30.36 in 6.2 mi East 9.2 mph - N/A   Partly Cloudy
8:20 PM 57.2 °F 51.8 °F 82% 30.36 in 6.2 mi ENE 8.1 mph - N/A   Partly Cloudy
8:50 PM 57.2 °F 51.8 °F 82% 30.36 in 6.2 mi East 8.1 mph - N/A   Partly Cloudy
9:20 PM 55.4 °F 51.8 °F 88% 30.36 in 6.2 mi East 6.9 mph - N/A   Partly Cloudy
9:50 PM 55.4 °F 51.8 °F 88% 30.36 in 6.2 mi East 8.1 mph - N/A   Partly Cloudy